| time (UTC) | temp C | wind direction | speed KPH | gust KPH | rain 1hr cm | rain 24hr cm | rain mn cm | humidity % | barometer mb |
| 20260510213856 | 20 | 252 | 3.2 | 9.7 | 0.00 | 0.13 | 0.00 | 60 | 1012.8 |
| 20260510212854 | 20 | 222 | 3.2 | 6.4 | 0.00 | 0.15 | 0.00 | 61 | 1012.7 |
| 20260510211855 | 20 | 217 | 1.6 | 4.8 | 0.00 | 0.15 | 0.00 | 61 | 1012.4 |
| 20260510210852 | 20 | 225 | 3.2 | 9.7 | 0.00 | 0.18 | 0.00 | 60 | 1012.4 |
| 20260510205852 | 20 | 225 | 1.6 | 6.4 | 0.00 | 0.25 | 0.00 | 61 | 1012.3 |
| 20260510204852 | 21 | 295 | 3.2 | 9.7 | 0.00 | 0.28 | 0.00 | 62 | 1012.3 |
| 20260510203854 | 21 | 243 | 3.2 | 8.0 | 0.00 | 0.30 | 0.00 | 65 | 1012.1 |
| 20260510202850 | 21 | 234 | 1.6 | 4.8 | 0.00 | 0.36 | 0.00 | 64 | 1011.8 |
| 20260510201848 | 21 | 233 | 3.2 | 9.7 | 0.00 | 0.41 | 0.00 | 62 | 1011.7 |
| 20260510200847 | 21 | 218 | 3.2 | 6.4 | 0.00 | 0.46 | 0.00 | 62 | 1011.6 |
| 20260510195847 | 22 | 271 | 3.2 | 6.4 | 0.00 | 0.56 | 0.00 | 63 | 1011.7 |
| 20260510194849 | 22 | 219 | 3.2 | 8.0 | 0.00 | 0.61 | 0.00 | 62 | 1011.8 |
| 20260510193848 | 22 | 238 | 3.2 | 9.7 | 0.00 | 0.64 | 0.00 | 61 | 1011.8 |
| 20260510192846 | 21 | 211 | 3.2 | 11.3 | 0.00 | 0.66 | 0.00 | 62 | 1011.9 |
| 20260510191846 | 21 | 230 | 3.2 | 9.7 | 0.00 | 0.69 | 0.00 | 64 | 1012.0 |
| 20260510190854 | 21 | 282 | 3.2 | 12.9 | 0.00 | 0.69 | 0.00 | 65 | 1012.0 |
| 20260510185845 | 21 | 254 | 3.2 | 9.7 | 0.00 | 0.69 | 0.00 | 64 | 1012.1 |
| 20260510184847 | 21 | 263 | 3.2 | 6.4 | 0.00 | 0.71 | 0.00 | 63 | 1012.1 |
| 20260510183849 | 22 | 222 | 3.2 | 11.3 | 0.00 | 0.71 | 0.00 | 62 | 1012.2 |
| 20260510182844 | 21 | 204 | 3.2 | 8.0 | 0.00 | 0.71 | 0.00 | 63 | 1012.2 |
| 20260510181846 | 21 | 239 | 3.2 | 8.0 | 0.00 | 0.71 | 0.00 | 65 | 1012.1 |
| 20260510180849 | 21 | 273 | 3.2 | 9.7 | 0.00 | 0.71 | 0.00 | 65 | 1012.3 |
| 20260510175846 | 21 | 245 | 3.2 | 9.7 | 0.00 | 0.71 | 0.00 | 65 | 1012.3 |
| 20260510174846 | 21 | 248 | 3.2 | 8.0 | 0.00 | 0.71 | 0.00 | 66 | 1012.4 |
| 20260510173845 | 21 | 336 | 3.2 | 11.3 | 0.00 | 0.71 | 0.00 | 64 | 1012.4 |
| 20260510172841 | 21 | 247 | 3.2 | 8.0 | 0.00 | 0.71 | 0.00 | 67 | 1012.5 |
| 20260510171842 | 20 | 198 | 3.2 | 9.7 | 0.00 | 0.71 | 0.00 | 68 | 1012.8 |
| 20260510170842 | 20 | 233 | 3.2 | 9.7 | 0.00 | 0.71 | 0.00 | 68 | 1012.8 |
| 20260510165841 | 20 | 230 | 4.8 | 9.7 | 0.00 | 0.71 | 0.00 | 69 | 1012.9 |
| 20260510164835 | 20 | 229 | 3.2 | 9.7 | 0.00 | 0.71 | 0.00 | 70 | 1013.0 |
| 20260510163906 | 19 | 0 | 4.8 | 9.7 | 0.00 | 0.71 | 0.00 | 72 | 1013.2 |
| 20260510162834 | 18 | 210 | 3.2 | 9.7 | 0.00 | 0.71 | 0.00 | 73 | 1013.3 |
| 20260510161833 | 18 | 212 | 3.2 | 11.3 | 0.00 | 0.74 | 0.00 | 72 | 1013.4 |
| 20260510160829 | 18 | 226 | 1.6 | 8.0 | 0.00 | 0.74 | 0.00 | 71 | 1013.4 |
| 20260510155830 | 18 | 243 | 3.2 | 8.0 | 0.00 | 0.74 | 0.00 | 71 | 1013.4 |
| 20260510154830 | 18 | 217 | 3.2 | 9.7 | 0.00 | 0.74 | 0.00 | 72 | 1013.5 |
| 20260510153831 | 18 | 239 | 3.2 | 8.0 | 0.00 | 0.74 | 0.00 | 73 | 1013.7 |
| 20260510152831 | 17 | 293 | 1.6 | 4.8 | 0.00 | 0.74 | 0.00 | 77 | 1013.8 |
| 20260510151831 | 17 | 223 | 1.6 | 4.8 | 0.00 | 0.74 | 0.00 | 79 | 1013.9 |
| 20260510150818 | 17 | 214 | 3.2 | 6.4 | 0.00 | 0.74 | 0.00 | 79 | 1013.8 |
| 20260510145818 | 16 | 265 | 3.2 | 4.8 | 0.00 | 0.74 | 0.00 | 79 | 1013.8 |
| 20260510144806 | 16 | 240 | 1.6 | 3.2 | 0.00 | 0.76 | 0.00 | 82 | 1013.7 |
| 20260510143804 | 15 | 224 | 1.6 | 3.2 | 0.00 | 0.76 | 0.00 | 82 | 1013.8 |
| 20260510142806 | 15 | 300 | 3.2 | 6.4 | 0.00 | 0.76 | 0.00 | 83 | 1013.9 |
| 20260510141806 | 15 | 221 | 3.2 | 6.4 | 0.00 | 0.76 | 0.00 | 84 | 1013.9 |
| 20260510140805 | 15 | 263 | 1.6 | 3.2 | 0.00 | 0.76 | 0.00 | 85 | 1013.9 |
| 20260510135805 | 14 | 327 | 1.6 | 3.2 | 0.00 | 0.76 | 0.00 | 87 | 1013.9 |
| 20260510134751 | 13 | 222 | 1.6 | 3.2 | 0.00 | 0.76 | 0.00 | 90 | 1013.8 |
| 20260510133751 | 13 | 0 | 0.0 | 4.8 | 0.00 | 0.79 | 0.00 | 92 | 1013.8 |
| 20260510132735 | 12 | 214 | 0.0 | 3.2 | 0.00 | 0.79 | 0.00 | 92 | 1013.8 |
| 20260510131734 | 12 | 0 | 0.0 | 1.6 | 0.00 | 0.79 | 0.00 | 93 | 1013.9 |
| 20260510130735 | 12 | 235 | 0.0 | 1.6 | 0.00 | 0.79 | 0.00 | 93 | 1013.8 |
| 20260510125735 | 12 | 0 | 0.0 | 1.6 | 0.00 | 0.79 | 0.00 | 93 | 1013.6 |
| 20260510124722 | 12 | 232 | 0.0 | 3.2 | 0.00 | 0.79 | 0.00 | 93 | 1013.5 |
| 20260510123706 | 12 | 226 | 0.0 | 1.6 | 0.00 | 0.79 | 0.00 | 94 | 1013.5 |
| 20260510122706 | 12 | 238 | 0.0 | 3.2 | 0.00 | 0.79 | 0.00 | 95 | 1013.5 |
| 20260510121706 | 12 | 217 | 0.0 | 3.2 | 0.00 | 0.79 | 0.00 | 95 | 1013.5 |
| 20260510120706 | 12 | 0 | 0.0 | 3.2 | 0.00 | 0.79 | 0.00 | 97 | 1013.5 |
| 20260510115651 | 12 | 272 | 0.0 | 3.2 | 0.00 | 0.81 | 0.00 | 97 | 1013.5 |
| 20260510114652 | 12 | 229 | 0.0 | 1.6 | 0.00 | 0.81 | 0.00 | 98 | 1013.4 |
| 20260510113653 | 11 | 0 | 0.0 | 1.6 | 0.00 | 0.84 | 0.00 | 98 | 1013.4 |
| 20260510112654 | 11 | 0 | 0.0 | 1.6 | 0.00 | 0.84 | 0.00 | 98 | 1013.3 |
| 20260510111653 | 11 | 0 | 0.0 | 1.6 | 0.00 | 0.86 | 0.00 | 98 | 1013.3 |
| 20260510110654 | 11 | 0 | 0.0 | 0.0 | 0.00 | 0.89 | 0.00 | 98 | 1013.1 |
| 20260510105653 | 11 | 0 | 0.0 | 0.0 | 0.00 | 0.89 | 0.00 | 98 | 1013.1 |
| 20260510104636 | 11 | 0 | 0.0 | 1.6 | 0.00 | 0.91 | 0.00 | 98 | 1012.8 |
| 20260510103637 | 11 | 0 | 0.0 | 1.6 | 0.00 | 0.94 | 0.00 | 99 | 1013.0 |
| 20260510102639 | 11 | 301 | 0.0 | 3.2 | 0.00 | 0.94 | 0.00 | 99 | 1012.7 |
| 20260510101637 | 11 | 265 | 1.6 | 3.2 | 0.00 | 0.99 | 0.00 | 99 | 1012.5 |
| 20260510100624 | 11 | 266 | 1.6 | 3.2 | 0.00 | 1.02 | 0.00 | 99 | 1012.5 |
| 20260510095623 | 11 | 251 | 1.6 | 3.2 | 0.00 | 1.04 | 0.00 | 99 | 1012.0 |
| 20260510094608 | 11 | 222 | 1.6 | 3.2 | 0.00 | 1.07 | 0.00 | 99 | 1012.3 |
| 20260510093608 | 11 | 227 | 1.6 | 3.2 | 0.00 | 1.07 | 0.00 | 99 | 1012.3 |
| 20260510092609 | 11 | 247 | 1.6 | 3.2 | 0.00 | 1.09 | 0.00 | 99 | 1012.3 |
| 20260510091609 | 11 | 278 | 0.0 | 3.2 | 0.00 | 1.17 | 0.00 | 99 | 1012.4 |
| 20260510090608 | 11 | 0 | 0.0 | 3.2 | 0.00 | 1.19 | 0.00 | 99 | 1012.4 |
| 20260510085553 | 11 | 220 | 0.0 | 1.6 | 0.00 | 1.22 | 0.00 | 99 | 1012.4 |
| 20260510084555 | 11 | 0 | 0.0 | 0.0 | 0.00 | 1.24 | 0.00 | 99 | 1012.8 |
| 20260510083556 | 11 | 0 | 0.0 | 1.6 | 0.00 | 1.24 | 0.00 | 99 | 1012.6 |
| 20260510082555 | 11 | 282 | 0.0 | 1.6 | 0.00 | 1.24 | 0.00 | 99 | 1012.6 |
| 20260510081555 | 11 | 0 | 0.0 | 0.0 | 0.00 | 1.24 | 0.00 | 99 | 1012.5 |
| 20260510080555 | 11 | 0 | 0.0 | 1.6 | 0.00 | 1.24 | 0.00 | 99 | 1012.6 |
| 20260510075541 | 11 | 0 | 0.0 | 1.6 | 0.00 | 1.24 | 0.00 | 99 | 1012.5 |
| 20260510074540 | 11 | 0 | 0.0 | 3.2 | 0.00 | 1.24 | 0.00 | 99 | 1012.4 |
| 20260510073541 | 11 | 0 | 0.0 | 1.6 | 0.00 | 1.24 | 0.00 | 99 | 1012.3 |
| 20260510072541 | 11 | 240 | 0.0 | 1.6 | 0.00 | 1.24 | 0.00 | 99 | 1012.2 |
| 20260510071541 | 11 | 0 | 0.0 | 1.6 | 0.00 | 1.24 | 0.00 | 99 | 1012.2 |
| 20260510070540 | 11 | 0 | 0.0 | 1.6 | 0.00 | 1.24 | 0.00 | 99 | 1012.1 |
| 20260510065527 | 11 | 0 | 0.0 | 3.2 | 0.00 | 1.24 | 0.00 | 99 | 1012.1 |
| 20260510064527 | 11 | 0 | 0.0 | 0.0 | 0.00 | 1.24 | 0.00 | 99 | 1012.2 |
| 20260510063526 | 11 | 0 | 0.0 | 1.6 | 0.00 | 1.24 | 0.00 | 99 | 1012.2 |
| 20260510062529 | 11 | 0 | 0.0 | 1.6 | 0.00 | 1.24 | 0.00 | 99 | 1012.2 |
| 20260510061528 | 11 | 0 | 0.0 | 1.6 | 0.00 | 1.24 | 0.00 | 99 | 1011.9 |
| 20260510060513 | 11 | 228 | 0.0 | 1.6 | 0.00 | 1.24 | 0.00 | 99 | 1011.8 |
| 20260510055459 | 11 | 0 | 0.0 | 0.0 | 0.00 | 1.24 | 0.00 | 99 | 1011.8 |
| 20260510054459 | 11 | 0 | 0.0 | 1.6 | 0.00 | 1.24 | 0.00 | 98 | 1011.8 |
| 20260510053458 | 11 | 232 | 0.0 | 1.6 | 0.00 | 1.24 | 0.00 | 98 | 1011.8 |
| 20260510052458 | 11 | 0 | 0.0 | 3.2 | 0.00 | 1.24 | 0.00 | 98 | 1012.1 |
| 20260510051501 | 11 | 0 | 0.0 | 1.6 | 0.00 | 1.24 | 0.00 | 98 | 1012.1 |
| 20260510050442 | 11 | 0 | 0.0 | 1.6 | 0.00 | 1.24 | 0.00 | 98 | 1012.3 |
| 20260510045442 | 11 | 0 | 0.0 | 0.0 | 0.00 | 1.24 | 0.00 | 98 | 1012.4 |
| 20260510044442 | 11 | 0 | 0.0 | 0.0 | 0.00 | 1.24 | 0.00 | 98 | 1012.1 |
| 20260510043442 | 11 | 0 | 0.0 | 0.0 | 0.00 | 1.24 | 0.00 | 98 | 1012.1 |
| 20260510042443 | 11 | 0 | 0.0 | 0.0 | 0.00 | 1.24 | 0.00 | 98 | 1012.3 |
| 20260510041442 | 11 | 0 | 0.0 | 1.6 | 0.00 | 1.24 | 0.00 | 98 | 1012.4 |
| 20260510040430 | 11 | 0 | 0.0 | 0.0 | 0.00 | 1.24 | 0.00 | 98 | 1012.4 |
| 20260510035432 | 11 | 0 | 0.0 | 0.0 | 0.00 | 1.24 | 1.24 | 98 | 1012.3 |
| 20260510034432 | 11 | 0 | 0.0 | 0.0 | 0.00 | 1.24 | 1.24 | 98 | 1012.2 |
| 20260510033432 | 11 | 0 | 0.0 | 0.0 | 0.00 | 1.24 | 1.24 | 98 | 1012.3 |
| 20260510032432 | 11 | 0 | 0.0 | 0.0 | 0.00 | 1.24 | 1.24 | 98 | 1012.2 |
| 20260510031430 | 11 | 0 | 0.0 | 0.0 | 0.00 | 1.24 | 1.24 | 98 | 1012.2 |
| 20260510030415 | 11 | 0 | 0.0 | 0.0 | 0.00 | 1.24 | 1.24 | 98 | 1012.2 |
| 20260510025416 | 11 | 0 | 0.0 | 0.0 | 0.00 | 1.24 | 1.24 | 98 | 1012.0 |
| 20260510024416 | 11 | 0 | 0.0 | 0.0 | 0.00 | 1.24 | 1.24 | 98 | 1012.0 |
| 20260510023418 | 11 | 0 | 0.0 | 0.0 | 0.00 | 1.24 | 1.24 | 98 | 1012.0 |
| 20260510022416 | 11 | 0 | 0.0 | 0.0 | 0.00 | 1.24 | 1.24 | 98 | 1012.0 |
| 20260510021403 | 11 | 0 | 0.0 | 0.0 | 0.00 | 1.24 | 1.24 | 98 | 1012.2 |
| 20260510020402 | 11 | 0 | 0.0 | 0.0 | 0.00 | 1.24 | 1.24 | 98 | 1012.4 |
| 20260510015401 | 11 | 0 | 0.0 | 0.0 | 0.00 | 1.24 | 1.24 | 98 | 1012.4 |
| 20260510014401 | 11 | 0 | 0.0 | 0.0 | 0.00 | 1.24 | 1.24 | 98 | 1012.5 |
| 20260510013402 | 11 | 0 | 0.0 | 0.0 | 0.00 | 1.24 | 1.24 | 98 | 1012.6 |
| 20260510012403 | 11 | 0 | 0.0 | 0.0 | 0.00 | 1.24 | 1.24 | 98 | 1012.4 |
| 20260510011346 | 11 | 0 | 0.0 | 0.0 | 0.00 | 1.24 | 1.24 | 98 | 1012.1 |
| 20260510010346 | 11 | 0 | 0.0 | 0.0 | 0.00 | 1.24 | 1.24 | 98 | 1011.9 |
| 20260510005346 | 11 | 0 | 0.0 | 0.0 | 0.00 | 1.24 | 1.24 | 98 | 1012.0 |
| 20260510004347 | 11 | 0 | 0.0 | 0.0 | 0.00 | 1.24 | 1.24 | 98 | 1011.9 |
| 20260510003347 | 11 | 0 | 0.0 | 0.0 | 0.00 | 1.24 | 1.24 | 98 | 1011.9 |
| 20260510002335 | 11 | 0 | 0.0 | 1.6 | 0.00 | 1.24 | 1.24 | 98 | 1011.7 |
| 20260510001333 | 11 | 0 | 0.0 | 0.0 | 0.00 | 1.24 | 1.24 | 98 | 1011.5 |
| 20260510000333 | 11 | 0 | 0.0 | 1.6 | 0.00 | 1.24 | 1.24 | 98 | 1011.7 |
| 20260509235333 | 11 | 0 | 0.0 | 1.6 | 0.00 | 1.24 | 1.24 | 98 | 1011.8 |
| 20260509234335 | 11 | 247 | 1.6 | 3.2 | 0.00 | 1.24 | 1.24 | 98 | 1011.7 |
| 20260509233320 | 11 | 237 | 1.6 | 3.2 | 0.00 | 1.24 | 1.24 | 98 | 1011.7 |
| 20260509232319 | 11 | 256 | 1.6 | 3.2 | 0.03 | 1.24 | 1.24 | 98 | 1011.8 |
| 20260509231321 | 11 | 214 | 1.6 | 3.2 | 0.05 | 1.24 | 1.24 | 98 | 1011.8 |
| 20260509230320 | 11 | 231 | 1.6 | 3.2 | 0.05 | 1.24 | 1.24 | 97 | 1011.7 |
| 20260509225320 | 11 | 0 | 1.6 | 4.8 | 0.10 | 1.24 | 1.24 | 97 | 1011.7 |
| 20260509224305 | 11 | 231 | 1.6 | 3.2 | 0.13 | 1.24 | 1.24 | 97 | 1011.8 |
| 20260509223306 | 11 | 228 | 1.6 | 3.2 | 0.13 | 1.24 | 1.24 | 97 | 1011.8 |
| 20260509222307 | 11 | 213 | 1.6 | 3.2 | 0.13 | 1.22 | 1.22 | 97 | 1012.0 |
| 20260509221306 | 11 | 232 | 1.6 | 3.2 | 0.15 | 1.22 | 1.22 | 97 | 1012.0 |
| 20260509220306 | 10 | 223 | 0.0 | 3.2 | 0.18 | 1.19 | 1.19 | 97 | 1011.9 |
| 20260509215307 | 10 | 0 | 0.0 | 0.0 | 0.15 | 1.14 | 1.14 | 96 | 1011.9 |